Regional Weather Roundup
Issued by NWS

Home | Current Version | Previous Version | Text Only | Print | Product List | Glossary On
Versions: 1 2 3 4 5 6 7 8 9 10 11 12 13 14 15 16 17 18 19 20 21 22 23 24 25 26 27 28 29 30 31 32 33 34 35 36 37 38 39 40 41 42 43 44 45 46 47 48 49 50
000
ASUS45 KCYS 301210
RWRWY

WYOMING REGIONAL WEATHER ROUNDUP
NATIONAL WEATHER SERVICE CHEYENNE WY
600 AM MDT MON MAR 30 2015

NOTE:  "FAIR" INDICATES FEW OR NO CLOUDS BELOW 12,000 FEET
WITH NO SIGNIFICANT WEATHER AND/OR OBSTRUCTIONS TO VISIBILITY.

WYZ001-301300-
YELLOWSTONE NATIONAL PARK

CITY           SKY/WX    TMP DP  RH WIND       PRES   REMARKS
LK YELLOWSTONE   N/A     21  17  84 CALM      30.27R
6HR MIN TEMP:  21; 6HR MAX TEMP:  26;

W YELLOWSTONE  NOT AVBL

$$
WYZ002>013-054>058-071-098>099-301300-
NORTHERN WYOMING

CITY           SKY/WX    TMP DP  RH WIND       PRES   REMARKS
JACKSON        FAIR      27  21  80 N5        30.26R WCI  21
CODY           FAIR      46  18  31 SW5       30.13R
GREYBULL       FAIR      35  21  56 CALM      30.11R
6HR MIN TEMP:  35; 6HR MAX TEMP:  44;

WORLAND        FAIR      34  22  61 S8        30.11R WCI  27
6HR MIN TEMP:  31; 6HR MAX TEMP:  38;

SHERIDAN       FAIR      32  25  75 SW3       30.08R
6HR MIN TEMP:  31; 6HR MAX TEMP:  42;

BUFFALO        FAIR      45  21  38 VRB5      30.10R
6HR MIN TEMP:  39; 6HR MAX TEMP:  51;

GILLETTE       FAIR      43  22  43 W14       30.07R
6HR MIN TEMP:  37; 6HR MAX TEMP:  48;

HULETT         FAIR      43  27  52 SW9       30.06R
NEWCASTLE      FAIR      34  21  60 N7        30.06S WCI  28

$$
WYZ014>020-022>026-101>103-301300-
CENTRAL WYOMING

CITY           SKY/WX    TMP DP  RH WIND       PRES   REMARKS
BIG PINEY      FAIR      21  14  74 E6        30.26S WCI  13
6HR MIN TEMP:  21; 6HR MAX TEMP:  32;

PINEDALE       PTSUNNY   23  19  86 W3        30.27S
DUBOIS         FAIR      30  18  59 W9        30.22R WCI  22
LANDER         FAIR      39  18  42 SW10      30.15R WCI  32
6HR MIN TEMP:  36; 6HR MAX TEMP:  50;

RIVERTON       FAIR      42  17  36 W14       30.15R
6HR MIN TEMP:  41; 6HR MAX TEMP:  51;

CASPER         FAIR      36  15  42 SW8       30.14R WCI  30
6HR MIN TEMP:  28; 6HR MAX TEMP:  37;

DOUGLAS        FAIR      33  18  53 NW7       30.12R WCI  27
6HR MIN TEMP:  28; 6HR MAX TEMP:  37;


$$
WYZ021-027>030-104>119-301300-
SOUTHERN WYOMING

CITY           SKY/WX    TMP DP  RH WIND       PRES   REMARKS
EVANSTON       FAIR      37  14  38 SW7       30.28R WCI  32
6HR MIN TEMP:  36; 6HR MAX TEMP:  42;

FORT BRIDGER   FAIR      44  12  27 SW10      30.29S
ROCK SPRINGS   FAIR      33  14  45 W10       30.25R WCI  25
6HR MIN TEMP:  32; 6HR MAX TEMP:  41;

DIXON          FAIR      27  17  66 CALM      30.28F
RAWLINS        FAIR      39  12  33 W5        30.22R
6HR MIN TEMP:  37; 6HR MAX TEMP:  43;

SARATOGA       FAIR      28  18  64 MISG      30.24S
LARAMIE        FAIR      35  13  40 VRB5      30.21R WCI  31
6HR MIN TEMP:  31; 6HR MAX TEMP:  45;

CHEYENNE       FAIR      42  15  33 W16       30.14S
6HR MIN TEMP:  35; 6HR MAX TEMP:  45;

TORRINGTON     FAIR      29  21  72 W7        30.07R WCI  22
6HR MIN TEMP:  29; 6HR MAX TEMP:  45;

PINE BLUFFS    FAIR      32  21  64 N10       30.12S WCI  24

$$


USA.gov is the U.S. government's official web portal to all federal, state and local government web resources and services.